COSMOS 252 DEB *, 3686

Orbit data source: Space-Track

COSMOS 252 DEB *, 3686 is space debris in LEO originally from a launch on Fri, 01 Nov 1968 UTC launched from the Tyuratam Missile And Space Complex (TTMTR). Debris objects in space refer to the collection of defunct objects orbiting the Earth. Examples of debris include non-operational satellites, rocket bodies, and fragments generated from explosions, collisions, or faulty payload assembly.

Loading next visibility...
Identifier
3686, 1968-097AD
Orbit
LEO
Country
Flag of CISCIS
Related business
Manufacturer
Unknown
Mission
Spacecraft
Bus & Motor
Unknown
Mass
Unknown
Launch date (UTC)
1968-11-01 (57 years ago)
Launch vehicle
Unknown
Launch site
Tyuratam Missile And Space Complex (TTMTR)
Object type
Payload
Rocket body
Debris
Shape & HBR
Unknown
Radar Cross Section
Small (<0.1 m²)

Expand to show TLE details & history
Last TLE update: 1 day ago

TLE from 1 day ago
0 COSMOS 252 DEB *
1 03686U 68097AD  25242.02472946  .00005314  00000-0  46585-2 0  9995
2 03686  62.2567 128.0312 0655846 106.4956 260.9110 13.16225744658413
Epoch: 2025-08-30T00:35Z
TLE epoch observation values (Epoch: 2025-08-30T00:35:36.625Z)
Latitude
-0.00005°
Longitude
140.66361°
Altitude
1,310.551 km
Speed
7.15 km/s
True Right ascension
08h 32m 07s
True Declination
0° 00' 00"
Sunlit
Object was in daylight at epoch
Visualization orbit readout
Latitude
Unknown
Longitude
Unknown
Altitude
Unknown
Speed
Unknown
Apparent Right ascension
Unknown
Apparent Declination
Unknown
Sunlit
N/A
Visualization observer readout
Local Sidereal Time
16:24:03
Azimuth
Unknown
Elevation
Unknown
Doppler factor
Unknown
Orbital elements
Apogee altitude
1,695.04 km
Perigee altitude
701.264 km
Semi-major axis
7,576.289 km
Eccentricity
0.06558
Inclination
62.2567°
RAAN
128.0312°
Arg. of periapsis
106.4956°
True anomaly
253.60466°
Mean anomaly
260.911°
Eccentric anomaly
257.24599°
Mean motion
3.29123 °/min
Orbital period
109.38 mins
BSTAR
0.0046585
Loading maneuver chart data...
Computing Atmospheric mass density...

Documentation

Showing up to 5 results
|